Location: Krakow
(50.0830°N, 19.9170°E)
Time: 06:25:51
(UTC+01:00)

Tiros 1 - Visible Passes

Search period start: 30 January 2023 00:00
Search period end: 09 February 2023 00:00
Orbit: 628 x 662 km, 48.4° (Epoch: 29 January)

Date Brightness Start Highest point End Pass type
(mag) Time Alt. Az. Time Alt. Az. Time Alt. Az.
30 Jan 9.7 03:29:01 18° E 03:29:01 18° E 03:30:16 10° E visible
30 Jan 7.2 05:06:38 52° WSW 05:07:38 71° S 05:12:21 10° ESE visible
31 Jan 8.9 03:53:17 29° E 03:53:17 29° E 03:55:40 10° E visible
31 Jan 7.4 05:30:54 31° W 05:32:58 57° SSW 05:37:37 10° ESE visible
01 Feb 7.9 04:17:34 48° ESE 04:17:34 48° ESE 04:21:03 10° ESE visible
01 Feb 7.9 05:55:11 18° W 05:58:12 40° SSW 06:02:38 10° SE visible
02 Feb 10.2 03:04:15 11° E 03:04:15 11° E 03:04:21 10° E visible
02 Feb 7.3 04:41:53 59° S 04:41:53 59° S 04:46:20 10° ESE visible
02 Feb 8.6 06:19:30 10° W 06:23:18 25° SW 06:27:10 10° SSE visible
03 Feb 9.7 03:28:36 17° ESE 03:28:36 17° ESE 03:29:44 10° E visible
03 Feb 7.7 05:06:13 39° SW 05:06:56 42° SSW 05:11:23 10° SE visible
04 Feb 9.0 03:52:59 25° ESE 03:52:59 25° ESE 03:55:01 10° ESE visible
04 Feb 8.4 05:30:37 23° WSW 05:32:02 27° SSW 05:35:59 10° SSE visible
05 Feb 8.5 04:17:26 30° SSE 04:17:26 30° SSE 04:20:07 10° SE visible
05 Feb 9.0 05:55:05 12° WSW 05:57:00 15° SW 05:59:43 10° S visible
06 Feb 8.6 04:41:58 25° S 04:41:58 25° S 04:44:47 10° SSE visible
07 Feb 9.0 05:06:35 16° SSW 05:06:35 16° SSW 05:08:40 10° S visible
